Notices

What's New in latest Release from April 7th, 2021:

- Updated Glossary, including Speed of Maximum Gust, and Total Hourly Precipitation

- Updated national and regional climate services offices contacts and prices information

- Addition of station inventory lists for 1981-2010, 1971-2000, and 1961-1990 Normals.

If you haven't already, please take our survey and provide feedback about our website: https://eccc.sondage-survey.ca/f/LanguageSelection.aspx?s=442ca660-fcf1-47c0-95a9-59707d6fd709

Hourly Data Report for March 22, 2019

MIRAMICHI RCS
NEW BRUNSWICK
Current Station Operator: ECCC - MSC

47°00'34.000" N
65°27'54.000" W
33.00 m
8100989
71744
ACQ

Download Data

Hourly Data (March 2019)
Hourly Data Report for March 22, 2019
TIME
LST
Temp Definition
°C
Dew Point Definition
°C
Rel Hum Definition
%
Precip. Amount Definition
mm

Wind Dir Definition
10's deg

Wind Spd Definition
km/h
Visibility Definition
km
Stn Press Definition
kPa
Hmdx Definition


Wind Chill Definition


Weather Definition


00:00 1.3 -4.2 67 0.0 20 16   101.21     LegendNANA
01:00 0.8 -4.8 66 0.0 20 8   101.20     LegendNANA
02:00 0.4 -4.8 68 0.0 19 11   101.18     LegendNANA
03:00 0.3 -5.0 67 0.0 21 5   101.08     LegendNANA
04:00 0.1 -4.3 72 0.0 19 4   100.95     LegendNANA
05:00 -0.8 -4.4 77 0.0 9 5   100.84   -2 LegendNANA
06:00 -1.3 -5.1 75 0.0 11 3   100.86   -2 LegendNANA
07:00 -1.4 -4.8 78 0.0 7 4   100.79   -3 LegendNANA
08:00 -0.4 -4.5 74 0.0 9 9   100.71   -4 LegendNANA
09:00 -0.1 -3.7 77 0.0 6 13   100.51   -4 LegendNANA
10:00 0.6 -1.7 84 0.0 7 15   100.41     LegendNANA
11:00 -0.3 -1.2 93 1.3 4 11   100.25   -4 LegendNANA
12:00 0.0 -0.7 95 2.3 5 16   99.97   -5 LegendNANA
13:00 -0.1 -0.6 96 0.0 6 24   99.77   -6 LegendNANA
14:00 0.4 0.0 97 0.7 6 24   99.58     LegendNANA
15:00 1.4 0.9 97 1.8 6 27   99.28     LegendNANA
16:00 1.7 0.8 94 0.6 5 34   98.98     LegendNANA
17:00 1.3 0.6 95 2.8 5 36   98.72     LegendNANA
18:00 1.1 0.6 96 4.6 6 33   98.56     LegendNANA
19:00 0.6 0.1 97 2.2 6 38   98.42     LegendNANA
20:00 0.5 0.1 97 0.9 6 28   98.34     LegendNANA
21:00 0.7 0.2 96 0.2 6 28   98.25     LegendNANA
22:00 0.7 0.2 97 0.0 4 19   98.21     LegendNANA
23:00 0.5 0.1 97 0.2 4 16   98.11     LegendNANA

Notes on Data Quality.

Legend

  • E = Estimated
  • M = Missing
  • NA = Not Available*
  • [empty] = Indicates an unobserved value
Date modified: